Location: Umburanas
(4.5000°S, 37.9667°W)
Time: 17:48:03
(UTC+00:00)

ARIANE 5 DEB (SYLDA) - Pass Details

Date: 19 November 2019
Orbit: 298 x 24456 km, 6.1° (Epoch: 07 December)

Event Time Altitude Azimuth Distance (km) Brightness Sun altitude
Rises 21:51:17 0° 268° (W) 6,785 9.6 -20.4°
Reaches altitude 10° 21:58:14 10° 272° (W) 3,627 7.9 -22.0°
Enters shadow 22:04:34 43° 335° (NNW) 791 3.5 -23.4°
